This is the latest recevied weather packets stored in our database for station/object M0OAB-1. If no packets are shown the sender has not sent any weather packets the latest 10 day(s).
| Time | Temp. | Humidity | Pressure | Rain* | Wind** | Luminosity | Snow |
|---|---|---|---|---|---|---|---|
| 1777474085 | 17.22° C | 30% | 1010.7 hPa | 0 mm | - | - | - |
| 1777472284 | 17.22° C | 32% | 1010.9 hPa | 0 mm | - | - | - |
| 1777472165 | 17.22° C | 32% | 1011 hPa | 0 mm | - | - | - |
| 1777471564 | 17.78° C | 30% | 1011.1 hPa | 0 mm | - | - | - |
| 1777471084 | 17.78° C | 30% | 1011.1 hPa | 0 mm | - | - | - |
| 1777470604 | 17.78° C | 27% | 1011.1 hPa | 0 mm | - | - | - |
| 1777469765 | 17.78° C | 28% | 1011.1 hPa | 0 mm | - | - | - |
| 1777469644 | 17.78° C | 28% | 1010.8 hPa | 0 mm | - | - | - |
| 1777468804 | 18.33° C | 26% | 1011 hPa | 0 mm | - | - | - |
| 1777468205 | 17.78° C | 26% | 1011.1 hPa | 0 mm | - | - | - |
| 1777468084 | 17.78° C | 25% | 1011.2 hPa | 0 mm | - | - | - |
| 1777466884 | 18.33° C | 30% | 1011.1 hPa | 0 mm | - | - | - |
| 1777464964 | 17.78° C | 28% | 1011.4 hPa | 0 mm | - | - | - |
| 1777464604 | 17.78° C | 26% | 1011.6 hPa | 0 mm | - | - | - |
| 1777463644 | 17.78° C | 30% | 1011.6 hPa | 0 mm | - | - | - |
| 1777463404 | 17.78° C | 31% | 1011.6 hPa | 0 mm | - | - | - |
| 1777462924 | 17.78° C | 30% | 1011.6 hPa | 0 mm | - | - | - |
| 1777462445 | 17.78° C | 31% | 1011.6 hPa | 0 mm | - | - | - |
| 1777462324 | 17.22° C | 32% | 1011.5 hPa | 0 mm | - | - | - |
| 1777460044 | 16.67° C | 34% | 1011.1 hPa | 0 mm | - | - | - |
| 1777459324 | 16.67° C | 33% | 1011.3 hPa | 0 mm | - | - | - |
| 1777458365 | 16.67° C | 33% | 1011.5 hPa | 0 mm | - | - | - |
| 1777456324 | 16.11° C | 36% | 1011.3 hPa | 0 mm | - | - | - |
| 1777454284 | 15.56° C | 40% | 1011.3 hPa | 0 mm | - | - | - |
| 1777453445 | 15.56° C | 40% | 1011 hPa | 0 mm | - | - | - |
* Rain latest hour (hover to see other rain measurements)
** Current wind speed in m/s (hover to see current wind gust speed)